Data for 10/06/2006

Time Sea-Level Adjusted Pressure Absolute Pressure Temperature Relative Humidity Dew Point   
(mb) (inHg) (mb) (inHg) (C) (F) (%) (C) (F)
00:05 1015 29.97 845 24.95 16.3 61.3 50 5.9 42.6
00:10 1015 29.97 845 24.95 16.3 61.3 51 6.1 43
00:15 1016 30 845 24.95 16.1 60.9 52 6.2 43.1
00:20 1016 30 845 24.95 15.7 60.3 53 6.3 43.3
00:25 1016 30 845 24.95 15.4 59.8 54 6.3 43.3
00:30 1016 30 845 24.95 15.1 59.1 55 6.2 43.1
00:35 1016 30 845 24.95 15.2 59.4 53 5.9 42.6
00:40 1016 30 845 24.95 15.6 60.1 52 5.8 42.5
00:45 1016 30 845 24.95 15.9 60.6 50 5.7 42.2
00:50 1016 30 845 24.95 16.1 60.9 50 5.8 42.5
00:55 1016 30 845 24.95 16.1 60.9 50 5.9 42.6
01:00 1016 30 845 24.95 16 60.8 50 5.8 42.5
01:05 1016 30 845 24.95 15.8 60.4 53 6.2 43.1
01:10 1016 30 845 24.95 15.5 59.8 53 6 42.7
01:15 1016 30 845 24.95 15.5 59.9 52 5.9 42.6
01:20 1016 30 845 24.95 15.7 60.2 51 5.7 42.3
01:25 1016 30 845 24.95 15.8 60.4 53 6.3 43.4
01:30 1016 30 845 24.95 15.7 60.2 53 6.2 43.1
01:35 1016 30 845 24.95 15.4 59.8 52 5.8 42.4
01:40 1016 30 845 24.95 15.4 59.8 53 6 42.8
01:45 1016 30 845 24.95 15.4 59.7 52 5.8 42.4
01:50 1016 30 845 24.95 15.3 59.6 53 5.9 42.6
01:55 1016 30 845 24.95 15.3 59.5 54 6 42.8
02:00 1016 30 845 24.95 15.2 59.3 53 5.8 42.5
02:05 1016 30 845 24.95 15.4 59.8 52 5.6 42.2
02:10 1016 30 845 24.95 15.4 59.7 52 5.8 42.4
02:15 1016 30 845 24.95 15.4 59.7 52 5.8 42.4
02:20 1016 30 845 24.95 15.2 59.3 53 5.7 42.3
02:25 1016 30 845 24.95 15.3 59.5 52 5.6 42.1
02:30 1016 30 845 24.95 15.5 59.9 52 5.9 42.6
02:35 1016 30 845 24.95 15.5 60 54 6.4 43.6
02:40 1016 30 845 24.95 14.9 58.9 54 5.9 42.6
02:45 1016 30 845 24.95 15 59 53 5.7 42.3
02:50 1016 30 845 24.95 15.6 60.1 51 5.7 42.3
02:55 1016 30 845 24.95 15.5 59.9 53 6.1 42.9
03:00 1016 30 845 24.95 15.5 59.9 52 5.8 42.5
03:05 1016 30 845 24.95 15.6 60 53 6.1 42.9
03:10 1016 30 845 24.95 15.6 60 53 6.1 43
03:15 1016 30 845 24.95 15.6 60.1 53 6.2 43.1
03:20 1016 30 845 24.95 15.4 59.6 55 6.5 43.7
03:25 1016 30 845 24.95 15 58.9 58 6.7 44.1
03:30 1016 30 845 24.95 13.9 57 62 6.8 44.3
03:35 1016 30 845 24.95 13.8 56.8 62 6.7 44.1
03:40 1016 30 846 24.98 13.9 57.1 62 6.8 44.2
03:45 1016 30 846 24.98 13.7 56.7 62 6.7 44.1
03:50 1016 30 846 24.98 13.6 56.4 64 7 44.6
03:55 1016 30 846 24.98 13.3 56 65 7 44.6
04:00 1017 30.03 846 24.98 13.2 55.7 66 7 44.7
04:05 1017 30.03 846 24.98 13 55.5 66 7 44.6
04:10 1017 30.03 846 24.98 12.9 55.2 67 7 44.6
04:15 1017 30.03 846 24.98 12.8 55 67 6.9 44.4
04:20 1017 30.03 846 24.98 12.7 54.9 67 6.8 44.3
04:25 1017 30.03 846 24.98 12.5 54.5 69 7 44.6
04:30 1017 30.03 846 24.98 11.7 53.1 72 6.9 44.5
04:35 1017 30.03 846 24.98 11.1 52 75 6.8 44.3
04:40 1017 30.03 846 24.98 10.7 51.3 76 6.6 43.9
04:45 1017 30.03 846 24.98 10.7 51.2 75 6.5 43.7
04:50 1017 30.03 846 24.98 10.9 51.6 74 6.4 43.6
04:55 1017 30.03 846 24.98 11.2 52.2 73 6.5 43.8
05:00 1017 30.03 846 24.98 11.1 51.9 74 6.6 43.9
05:05 1017 30.03 846 24.98 11 51.8 74 6.6 43.9
05:10 1017 30.03 846 24.98 10.8 51.4 75 6.6 43.8
05:15 1017 30.03 846 24.98 10.4 50.8 77 6.6 43.8
05:20 1017 30.03 846 24.98 10.3 50.5 77 6.4 43.6
05:25 1017 30.03 846 24.98 10.3 50.6 76 6.3 43.3
05:30 1017 30.03 846 24.98 10.6 51 74 6.2 43.1
05:35 1017 30.03 846 24.98 10.8 51.4 74 6.4 43.5
05:40 1017 30.03 846 24.98 10.6 51 75 6.3 43.4
05:45 1017 30.03 846 24.98 10.6 51 75 6.4 43.5
05:50 1017 30.03 846 24.98 10.6 51 75 6.3 43.4
05:55 1017 30.03 846 24.98 10.7 51.3 74 6.3 43.4
06:00 1017 30.03 847 25.01 10.8 51.4 74 6.3 43.4
06:05 1017 30.03 847 25.01 10.8 51.4 74 6.4 43.4
06:10 1017 30.03 847 25.01 10.7 51.3 75 6.4 43.6
06:15 1017 30.03 847 25.01 10.8 51.4 74 6.4 43.6
06:20 1017 30.03 847 25.01 10.5 50.9 76 6.5 43.7
06:25 1017 30.03 847 25.01 10.4 50.7 75 6.2 43.2
06:30 1017 30.03 847 25.01 10.5 51 75 6.3 43.3
06:35 1017 30.03 847 25.01 10.5 51 75 6.3 43.4
06:40 1017 30.03 847 25.01 10.6 51 75 6.3 43.3
06:45 1017 30.03 847 25.01 10.5 50.9 75 6.2 43.2
06:50 1017 30.03 847 25.01 10.5 51 74 6.2 43.1
06:55 1017 30.03 847 25.01 10.6 51.1 74 6.2 43.2
07:00 1017 30.03 847 25.01 10.3 50.5 77 6.3 43.4
07:05 1017 30.03 847 25.01 10 50.1 77 6.2 43.2
07:10 1017 30.03 847 25.01 10 50.1 76 6 42.9
07:15 1017 30.03 847 25.01 10.1 50.2 76 6 42.9
07:20 1017 30.03 847 25.01 10.4 50.6 74 6 42.8
07:25 1017 30.03 847 25.01 10.8 51.4 73 6.1 43
07:30 1017 30.03 847 25.01 11.1 51.9 72 6.2 43.2
07:35 1017 30.03 847 25.01 11.3 52.3 72 6.5 43.7
07:40 1017 30.03 846 24.98 11 51.8 73 6.3 43.4
07:45 1017 30.03 847 25.01 11.1 51.9 73 6.5 43.7
07:50 1017 30.03 846 24.98 10.8 51.5 74 6.3 43.4
07:55 1017 30.03 846 24.98 10.7 51.3 74 6.4 43.5
08:00 1017 30.03 847 25.01 10.7 51.3 74 6.3 43.4
08:05 1017 30.03 847 25.01 11.1 51.9 72 6.3 43.3
08:10 1017 30.03 847 25.01 11.3 52.3 72 6.5 43.6
08:15 1017 30.03 847 25.01 11.6 52.9 71 6.5 43.7
08:20 1017 30.03 847 25.01 11.8 53.2 70 6.6 43.8
08:25 1017 30.03 847 25.01 12 53.5 69 6.6 43.8
08:30 1017 30.03 847 25.01 12.3 54.1 68 6.7 44
08:35 1017 30.03 847 25.01 12.3 54.2 69 6.9 44.4
08:40 1017 30.03 847 25.01 12.2 53.9 70 6.9 44.4
08:45 1017 30.03 846 24.98 12 53.5 71 6.9 44.4
08:50 1017 30.03 846 24.98 11.8 53.3 72 7 44.6
08:55 1017 30.03 846 24.98 12 53.6 71 7 44.5
09:00 1017 30.03 846 24.98 12.2 53.9 71 7 44.7
09:05 1017 30.03 846 24.98 12.3 54.1 71 7.3 45.1
09:10 1017 30.03 846 24.98 12.2 54 71 7.2 44.9
09:15 1017 30.03 846 24.98 12.3 54.1 70 7.1 44.8
09:20 1017 30.03 846 24.98 12.8 55 69 7.2 45
09:25 1017 30.03 846 24.98 13 55.4 68 7.2 44.9
09:30 1017 30.03 846 24.98 13.2 55.7 66 7.1 44.8
09:35 1017 30.03 846 24.98 13.7 56.6 65 7.2 44.9
09:40 1017 30.03 846 24.98 14 57.3 63 7.1 44.8
09:45 1017 30.03 846 24.98 14.4 57.9 61 7.1 44.8
09:50 1017 30.03 846 24.98 14.4 57.9 62 7.3 45.2
09:55 1017 30.03 846 24.98 15 59.1 58 7 44.6
10:00 1017 30.03 846 24.98 15.6 60.1 56 6.9 44.4
10:05 1017 30.03 846 24.98 15.8 60.5 56 7.3 45.1
10:10 1017 30.03 846 24.98 16 60.8 54 6.7 44.1
10:15 1017 30.03 846 24.98 16.5 61.6 54 7.1 44.9
10:20 1017 30.03 846 24.98 15.8 60.5 57 7.4 45.4
10:25 1017 30.03 846 24.98 15.2 59.3 58 7.1 44.8
10:30 1017 30.03 846 24.98 15.6 60 57 7.1 44.8
10:35 1017 30.03 846 24.98 15.8 60.4 56 7.1 44.7
10:40 1017 30.03 846 24.98 16.1 61.1 57 7.6 45.7
10:45 1017 30.03 846 24.98 16.7 62 53 7.2 45
10:50 1016 30 846 24.98 16.8 62.2 53 7.1 44.9
10:55 1016 30 846 24.98 17.2 62.9 51 7 44.6
11:00 1016 30 846 24.98 17.2 62.9 53 7.7 45.9
11:05 1016 30 846 24.98 16.5 61.7 54 7.3 45.2
11:10 1016 30 846 24.98 16.9 62.4 52 7.1 44.8
11:15 1016 30 846 24.98 17 62.5 52 7.2 45
11:20 1016 30 845 24.95 17.6 63.7 51 7.5 45.6
11:25 1016 30 845 24.95 18.2 64.8 48 7.2 45
11:30 1016 30 845 24.95 19 66.2 46 7.3 45.1
11:35 1016 30 845 24.95 18.6 65.4 49 7.7 45.9
11:40 1016 30 845 24.95 17.8 64 52 7.9 46.1
11:45 1016 30 845 24.95 17.4 63.2 51 7.3 45.2
11:50 1016 30 845 24.95 18.1 64.6 50 7.7 45.9
11:55 1016 30 845 24.95 18.2 64.8 50 7.7 45.9
12:00 1016 30 845 24.95 18.5 65.3 49 7.6 45.7
12:05 1016 30 845 24.95 18.6 65.5 48 7.6 45.7
12:10 1016 30 845 24.95 17.5 63.4 53 7.8 46.1
12:15 1016 30 845 24.95 17.1 62.7 53 7.6 45.7
12:20 1016 30 845 24.95 17.1 62.8 53 7.6 45.7
12:25 1015 29.97 845 24.95 17.8 64 51 7.5 45.5
12:30 1015 29.97 845 24.95 18.4 65.1 49 7.7 45.8
12:35 1016 30 845 24.95 18.9 66 47 7.6 45.6
12:40 1015 29.97 845 24.95 18.7 65.6 50 8 46.5
12:45 1015 29.97 845 24.95 18.4 65.1 49 7.6 45.6
12:50 1015 29.97 844 24.92 18.5 65.3 48 7.4 45.3
12:55 1015 29.97 844 24.92 19.4 67 44 7.1 44.9
13:00 1015 29.97 844 24.92 19.1 66.3 45 7.1 44.8
13:05 1015 29.97 844 24.92 18.7 65.6 47 7.3 45.1
13:10 1015 29.97 844 24.92 18.8 65.9 47 7.4 45.2
13:15 1015 29.97 844 24.92 19.2 66.6 46 7.5 45.5
13:20 1015 29.97 844 24.92 19.7 67.4 42 6.6 43.9
13:25 1015 29.97 844 24.92 20.2 68.4 42 7.2 44.9
13:30 1015 29.97 844 24.92 20.4 68.8 41 7 44.6
13:35 1015 29.97 844 24.92 20.7 69.2 41 7 44.5
13:40 1015 29.97 844 24.92 20.3 68.5 41 6.6 44
13:45 1015 29.97 844 24.92 19.9 67.8 42 6.6 43.9
13:50 1014 29.94 844 24.92 20 68 40 6.2 43.1
13:55 1014 29.94 843 24.89 20.6 69 38 5.9 42.7
14:00 1014 29.94 843 24.89 20.4 68.7 38 5.6 42
14:05 1014 29.94 843 24.89 20.7 69.3 38 5.9 42.5
14:10 1014 29.94 843 24.89 20.3 68.5 40 6.3 43.3
14:15 1014 29.94 843 24.89 20.5 68.8 37 5.6 42.1
14:20 1014 29.94 843 24.89 20.9 69.6 37 5.9 42.6
14:25 1014 29.94 843 24.89 20.6 69 38 5.9 42.7
14:30 1014 29.94 843 24.89 20.3 68.6 38 5.8 42.5
14:35 1014 29.94 843 24.89 20.3 68.5 39 5.9 42.7
14:40 1014 29.94 843 24.89 20.5 68.8 40 6.6 43.8
14:45 1014 29.94 843 24.89 20.1 68.2 38 5.3 41.6
14:50 1014 29.94 843 24.89 20.3 68.5 37 5.4 41.7
14:55 1014 29.94 843 24.89 20.5 68.9 36 5.1 41.3
15:00 1014 29.94 843 24.89 20.5 68.8 37 5.3 41.5
15:05 1014 29.94 843 24.89 20.4 68.6 38 5.6 42.1
15:10 1014 29.94 843 24.89 20.3 68.6 38 5.6 42
15:15 1014 29.94 843 24.89 20.4 68.7 37 5.5 42
15:20 1014 29.94 843 24.89 20.2 68.3 38 5.6 42
15:25 1014 29.94 843 24.89 19.8 67.7 38 5.4 41.6
15:30 1013 29.91 843 24.89 19.6 67.2 36 4.4 39.9
15:35 1013 29.91 843 24.89 19.6 67.2 37 4.6 40.3
15:40 1013 29.91 843 24.89 19.6 67.2 35 4 39.2
15:45 1013 29.91 843 24.89 19.7 67.4 37 4.6 40.3
15:50 1014 29.94 843 24.89 19.8 67.7 35 4.2 39.6
15:55 1014 29.94 843 24.89 19.7 67.4 36 4.5 40.1
16:00 1014 29.94 843 24.89 18.9 66 46 7.1 44.8
16:05 1014 29.94 843 24.89 17.5 63.5 52 7.7 45.8
16:10 1014 29.94 843 24.89 16.9 62.4 51 6.7 44
16:15 1014 29.94 843 24.89 16.4 61.5 57 8 46.3
16:20 1014 29.94 843 24.89 16.1 61 57 7.8 46
16:25 1014 29.94 843 24.89 15.6 60.1 63 8.7 47.7
16:30 1014 29.94 843 24.89 15 59 61 7.6 45.7
16:35 1014 29.94 843 24.89 14.9 58.9 64 8.3 47
16:40 1014 29.94 843 24.89 14.9 58.8 62 7.7 45.9
16:45 1014 29.94 843 24.89 14.9 58.8 63 8.1 46.5
16:50 1014 29.94 843 24.89 14.8 58.6 67 8.9 48
16:55 1014 29.94 843 24.89 14.6 58.4 64 8 46.4
17:00 1013 29.91 843 24.89 14.4 58 66 8.2 46.8
17:05 1013 29.91 843 24.89 14.3 57.8 67 8.4 47.1
17:10 1013 29.91 843 24.89 14.1 57.4 69 8.6 47.5
17:15 1013 29.91 842 24.86 14 57.2 69 8.4 47
17:20 1013 29.91 842 24.86 13.9 57.1 67 8 46.4
17:25 1013 29.91 842 24.86 14 57.2 68 8.3 46.9
17:30 1013 29.91 842 24.86 13.7 56.7 72 8.7 47.7
17:35 1013 29.91 842 24.86 13.3 56 72 8.4 47.1
17:40 1013 29.91 842 24.86 13.3 55.9 71 8.1 46.5
17:45 1013 29.91 842 24.86 13.2 55.8 71 8.2 46.8
17:50 1013 29.91 842 24.86 13.2 55.7 70 8 46.3
17:55 1013 29.91 842 24.86 13.3 55.9 69 7.8 46
18:00 1013 29.91 842 24.86 13.4 56 69 7.8 46
18:05 1013 29.91 842 24.86 13.4 56.1 69 7.9 46.2
18:10 1013 29.91 842 24.86 13.3 55.9 71 8.1 46.6
18:15 1013 29.91 842 24.86 13.3 55.9 70 8 46.4
18:20 1013 29.91 842 24.86 13.1 55.6 73 8.4 47.1
18:25 1013 29.91 842 24.86 12.9 55.1 75 8.6 47.5
18:30 1013 29.91 842 24.86 12.7 54.9 76 8.7 47.7
18:35 1013 29.91 843 24.89 12.6 54.6 77 8.8 47.8
18:40 1013 29.91 843 24.89 12.5 54.5 77 8.7 47.6
18:45 1013 29.91 842 24.86 12.5 54.4 79 8.9 48
18:50 1013 29.91 842 24.86 12.3 54.2 78 8.7 47.6
18:55 1013 29.91 843 24.89 12.3 54.1 78 8.5 47.4
19:00 1013 29.91 843 24.89 12.5 54.5 75 8.3 46.9
19:05 1014 29.94 843 24.89 12.6 54.7 75 8.2 46.8
19:10 1014 29.94 843 24.89 12.7 54.8 74 8.1 46.6
19:15 1014 29.94 843 24.89 12.7 54.9 73 8.1 46.6
19:20 1013 29.91 843 24.89 12.7 54.9 74 8.3 47
19:25 1013 29.91 843 24.89 12.6 54.7 75 8.3 47
19:30 1013 29.91 842 24.86 12.6 54.7 75 8.3 46.9
19:35 1013 29.91 842 24.86 12.6 54.7 75 8.4 47.1
19:40 1013 29.91 842 24.86 12.5 54.5 76 8.4 47.1
19:45 1013 29.91 842 24.86 12.4 54.4 77 8.4 47.2
19:50 1013 29.91 842 24.86 12.4 54.3 76 8.3 46.9
19:55 1013 29.91 842 24.86 12.4 54.3 77 8.5 47.2
20:00 1013 29.91 842 24.86 12.4 54.2 77 8.4 47.2
20:05 1013 29.91 842 24.86 12.3 54.2 78 8.6 47.5
20:10 1013 29.91 842 24.86 12.3 54.2 79 8.7 47.7
20:15 1013 29.91 842 24.86 12.2 54 79 8.7 47.6
20:20 1013 29.91 842 24.86 12.1 53.8 81 9 48.1
20:25 1013 29.91 843 24.89 11.9 53.5 83 9.1 48.4
20:30 1013 29.91 843 24.89 11.9 53.4 83 9.1 48.4
20:35 1014 29.94 843 24.89 11.7 53.1 84 9.1 48.4
20:40 1014 29.94 843 24.89 11.8 53.2 83 8.9 48
20:45 1014 29.94 843 24.89 12.1 53.8 81 9 48.1
20:50 1014 29.94 843 24.89 12 53.5 84 9.4 48.9
20:55 1014 29.94 843 24.89 11.7 53.1 85 9.3 48.8
21:00 1014 29.94 843 24.89 11.6 52.8 87 9.4 49
21:05 1014 29.94 843 24.89 11.4 52.4 87 9.3 48.8
21:10 1014 29.94 843 24.89 11.2 52.2 88 9.3 48.8
21:15 1014 29.94 843 24.89 11.2 52.2 89 9.5 49.1
21:20 1014 29.94 843 24.89 11.2 52.1 90 9.6 49.3
21:25 1014 29.94 843 24.89 11.1 51.9 92 9.8 49.6
21:30 1014 29.94 843 24.89 11 51.8 92 9.8 49.6
21:35 1014 29.94 843 24.89 11 51.7 93 9.8 49.7
21:40 1014 29.94 843 24.89 10.8 51.5 94 9.9 49.8
21:45 1014 29.94 843 24.89 10.8 51.5 93 9.7 49.5
21:50 1014 29.94 843 24.89 10.7 51.3 92 9.5 49
21:55 1014 29.94 843 24.89 10.8 51.4 93 9.6 49.3
22:00 1014 29.94 843 24.89 10.9 51.6 90 9.4 48.8
22:05 1013 29.91 843 24.89 10.8 51.5 90 9.3 48.7
22:10 1013 29.91 843 24.89 10.8 51.4 91 9.3 48.7
22:15 1013 29.91 843 24.89 10.7 51.2 92 9.4 48.9
22:20 1013 29.91 843 24.89 10.6 51.1 92 9.4 48.9
22:25 1013 29.91 843 24.89 10.5 50.9 93 9.4 48.9
22:30 1013 29.91 843 24.89 10.5 50.8 93 9.4 48.9
22:35 1013 29.91 843 24.89 10.5 50.8 93 9.3 48.8
22:40 1013 29.91 843 24.89 10.4 50.7 93 9.3 48.8
22:45 1013 29.91 843 24.89 10.4 50.7 93 9.3 48.8
22:50 1013 29.91 842 24.86 10.4 50.6 94 9.4 48.9
22:55 1013 29.91 842 24.86 10.4 50.6 94 9.4 48.9
23:00 1013 29.91 843 24.89 10.3 50.6 93 9.3 48.8
23:05 1013 29.91 842 24.86 10.3 50.5 94 9.3 48.7
23:10 1013 29.91 842 24.86 10.4 50.7 94 9.4 48.9
23:15 1013 29.91 842 24.86 10.5 50.8 93 9.4 48.9
23:20 1013 29.91 842 24.86 10.4 50.7 93 9.3 48.8
23:25 1013 29.91 842 24.86 10.2 50.4 94 9.3 48.7
23:30 1013 29.91 842 24.86 10 49.9 95 9.2 48.6
23:35 1013 29.91 842 24.86 9.9 49.8 96 9.2 48.5
23:40 1013 29.91 842 24.86 9.8 49.6 96 9.1 48.4
23:45 1013 29.91 842 24.86 9.6 49.3 96 9 48.2
23:50 1013 29.91 842 24.86 9.6 49.2 96 9 48.2
23:55 1013 29.91 842 24.86 9.7 49.5 96 9.1 48.4
24:00 1013 29.91 842 24.86 9.9 49.9 96 9.3 48.7